Flag for Azerbaijan Weather past 2 weeks in Ganja, Azerbaijan

Now
75 °F

Passing clouds.


Feels Like: 78 °F
Forecast: 76 / 92 °F
Wind: 10 mph from Northwest

Location: Gyanca Airport

Current Time: Jul 4, 2015 at 7:48:24 AM

Latest Report: Jul 4, 2015 at 7:00 AM


Visibility: N/A

Pressure: 29.95 "Hg

Humidity: 54%

Dew point: 57 °F

Location of GanjaLocation

Historic Weather in Ganja — Graph

°F

Ganja temperature yesterday

Maximum temperature yesterday: 93 °F (at 5:00 PM)
Minimum temperature yesterday: 72 °F (at 7:00 AM)
Average temperature yesterday: 84 °F

Past Weeks' High & Low Weather Summary

 TemperatureHumidityPressure
High102 °F (Jun 22, 5:00 PM)78% (Jun 26, 8:30 AM)30.07 "Hg (Jun 26, 8:30 AM)
Low70 °F (Jun 26, 8:30 AM)10% (Jun 22, 5:00 PM)29.53 "Hg (Jun 25, 7:30 PM)
Average84 °F39%29.76 "Hg
* Reported Jun 19 7:00 AM — Jul 4 7:00 AM, Ganja, Weather by CustomWeather, © 2015

Note: Actual official high and low records may vary slightly from our data, if they occured in-between our weather recording intervals... More about our weather records

Advertising

Ganja weather history for previous 24 hours

 ConditionsComfort  
Time TempWeatherWind HumidityBarometerVisibility
7:00 AM
Sat, Jul 4
75 °FPassing clouds.10 mph54%29.95 "HgN/A
6:30 AM75 °FPassing clouds.13 mph54%29.95 "HgN/A
6:00 AM75 °FPassing clouds.14 mph54%29.95 "HgN/A
5:30 AM75 °FPassing clouds.14 mph54%29.95 "HgN/A
5:00 AM75 °FPassing clouds.16 mph54%29.92 "HgN/A
4:30 AM77 °FPassing clouds.14 mph51%29.92 "HgN/A
4:00 AM77 °FPassing clouds.14 mph51%29.92 "HgN/A
3:30 AM79 °FPassing clouds.18 mph48%29.92 "HgN/A
2:30 AM79 °FPassing clouds.22 mph48%29.92 "HgN/A
1:30 AM79 °FPassing clouds.21 mph48%29.92 "HgN/A
1:00 AM81 °FPassing clouds.18 mph45%29.92 "HgN/A
12:30 AM81 °FPassing clouds.20 mph45%29.92 "HgN/A
12:00 AM82 °FPassing clouds.16 mph42%29.89 "HgN/A
11:30 PM
Fri, Jul 3
84 °FPassing clouds.15 mph43%29.89 "HgN/A
11:00 PM88 °FScattered clouds.6 mph38%29.89 "HgN/A
10:30 PM88 °FScattered clouds.3 mph40%29.86 "HgN/A
10:00 PM88 °FScattered clouds.3 mph38%29.86 "HgN/A
9:30 PM90 °FScattered clouds.2 mph36%29.86 "HgN/A
9:00 PM90 °FScattered clouds.2 mph33%29.83 "HgN/A
8:30 PM91 °FScattered clouds.7 mph32%29.83 "HgN/A
8:00 PM93 °FScattered clouds.3 mph30%29.83 "HgN/A
7:30 PM93 °FScattered clouds.6 mph30%29.80 "HgN/A
7:00 PM93 °FScattered clouds.5 mph30%29.83 "HgN/A
6:30 PM93 °FScattered clouds.6 mph30%29.80 "HgN/A
6:00 PM93 °FScattered clouds.6 mph30%29.83 "HgN/A
5:00 PM93 °FScattered clouds.7 mph30%29.83 "HgN/A
4:30 PM91 °FScattered clouds.6 mph32%29.83 "HgN/A
4:00 PM91 °FScattered clouds.6 mph32%29.86 "HgN/A
3:00 PM90 °FScattered clouds.6 mph36%29.86 "HgN/A
2:30 PMN/AScattered clouds.5 mphN/AN/AN/A
2:00 PM88 °FScattered clouds.5 mph38%29.89 "HgN/A
1:30 PM86 °FScattered clouds.7 mph40%29.89 "HgN/A
1:00 PM86 °FScattered clouds.8 mph38%29.92 "HgN/A
12:30 PM86 °FScattered clouds.9 mph40%29.92 "HgN/A
11:30 AM82 °FScattered clouds.7 mph48%29.92 "HgN/A
11:00 AM82 °FScattered clouds.8 mph48%29.92 "HgN/A
10:30 AM81 °FScattered clouds.7 mph54%29.92 "HgN/A
10:00 AM79 °FScattered clouds.8 mph58%29.95 "HgN/A
9:30 AM79 °FScattered clouds.7 mph54%29.92 "HgN/A
9:00 AM79 °FScattered clouds.6 mph54%29.92 "HgN/A
8:00 AM75 °FPassing clouds.2 mph61%29.95 "HgN/A
7:00 AM72 °FPassing clouds.3 mph69%29.95 "HgN/A
Weather by CustomWeather, © 2015

See weather overviewHow to use our weather pages